Theta_e
331 330 330 331 328 328 330 332 337 336 337 338 338 340 342 340 340 343 342 341 341 339
328 328 326 329 331 328 331 328 332 335 335 337 336 335 338 337 340 341 341 341 341 339
326 326 325 327 328 329 330 329 330 331 333 333 332 332 336 333 333 333 333 332 333 335
324 322 324 325 327 329 331 330 328 329 331 329 328 330 334 332 329 329 329 329 327 327
322 322 322 323 326 329 329 329 328 328 328 326 324 327 328 326 325 324 322 322 323 322
321 321 322 323 325 327 328 328 327 326 326 325 322 325 327 325 324 323 323 323 322 322
316 318 320 321 324 325 326 326 326 326 325 325 324 322 324 325 324 324 323 324 324 322
314 315 316 317 319 322 323 325 325 325 325 325 325 321 322 324 324 324 323 324 323 324
310 312 315 316 316 318 320 322 323 323 323 323 322 310 307 319 323 323 322 322 323 323
308 308 311 313 314 317 318 320 321 322 322 323 325 305 303 306 322 322 323 323 322 321
304 306 308 310 311 314 317 318 318 319 321 323 323 304 301 302 320 322 323 323 322 321
304 304 305 306 309 311 312 315 317 318 319 320 321 303 300 304 318 320 320 320 320 318
303 303 303 304 306 308 310 310 311 313 317 313 319 302 298 305 318 318 316 318 317 305
302 302 303 303 305 306 307 308 310 310 314 316 316 316 298 298 317 315 313 313 313 314
Wind_Speed
13 9 9 10 8 8 7 7 8 8 8 9 10 9 9 7 8 8 7 8 7 6
10 10 9 10 9 8 8 8 9 9 9 10 10 11 10 8 9 7 6 4 5 5
11 11 9 7 10 11 10 10 11 11 11 10 10 10 10 8 7 6 4 3 4 4
8 7 6 7 10 10 10 11 11 10 10 9 9 8 8 7 6 6 4 3 4 4
7 7 8 10 8 9 11 11 11 11 11 10 9 8 8 7 5 5 5 4 3 4
10 11 9 8 9 14 12 11 11 11 11 11 10 10 10 9 8 7 6 5 4 4
8 11 8 10 12 14 14 14 13 13 13 14 13 13 12 11 10 9 8 7 6 5
13 10 9 9 12 13 13 15 15 15 14 14 13 12 15 13 12 11 10 9 8 8
9 7 9 8 6 10 14 15 15 16 16 16 13 13 14 12 12 13 12 11 11 10
12 12 11 8 7 9 10 11 14 15 16 16 16 16 17 18 13 13 12 11 10 10
13 13 13 12 11 9 8 10 11 13 15 15 14 17 19 18 16 13 12 11 11 11
14 15 14 15 14 12 11 10 11 11 13 15 15 15 18 17 14 14 13 11 12 12
15 16 17 17 16 14 14 13 12 13 13 14 15 12 15 17 12 13 11 10 11 12
19 18 17 17 17 16 15 15 15 15 14 15 15 15 17 19 14 12 11 10 10 10
Wind_Direction
192 189 193 189 181 192 193 191 185 199 197 190 189 193 196 199 211 207 208 197 197 198
185 190 183 177 177 177 178 172 178 191 196 190 186 185 184 196 192 192 184 177 189 217
190 195 191 183 182 178 179 179 181 182 194 196 198 200 196 187 184 196 200 210 214 235
222 209 210 216 187 192 177 184 187 190 197 208 213 207 201 202 195 200 207 236 259 268
247 217 206 226 235 219 200 191 193 192 200 208 215 209 209 200 185 199 202 207 235 257
254 225 220 213 228 243 218 211 205 195 209 212 213 210 206 205 201 205 212 213 218 238
329 289 247 233 233 228 233 219 206 213 216 213 213 212 214 212 210 209 214 218 238 256
324 319 295 250 248 242 238 233 219 215 216 226 222 215 215 215 214 216 221 225 235 244
295 298 287 263 252 256 249 245 236 226 220 215 220 213 206 212 215 218 223 229 236 248
303 294 296 300 294 267 258 256 244 241 231 221 219 201 199 204 220 222 222 224 234 247
281 283 284 280 274 273 265 255 253 244 239 232 224 195 202 199 214 220 218 219 225 241
281 281 279 275 274 273 270 262 254 251 246 238 238 202 195 191 204 215 215 211 224 235
279 275 273 273 269 266 261 259 259 254 245 249 242 200 194 192 213 211 212 216 234 218
279 271 270 271 265 259 257 257 250 250 244 240 235 231 193 192 218 219 215 228 232 240